www.pogodaiklimat.ru

Погода и климат >> Архив погоды >> Белиз >> Belize


ПОГОДА в Belize

  • Прогноз погоды в Belize
  • Монитор погоды в Belize
  • Климат города

АРХИВ ПОГОДЫ в Belize

Время (UTC), дата Ветер
(напр.,м/с)
 
Видим.   Явления Облачность Т
(С)
Тd
(С)
f
(%)
Тe
(С)
Тes
(С)
Комфортность P
(гПа)
Po
(гПа)
Тmin
(С)
Tmax
(С)
R
(мм)
R24
(мм)
S
(см)
15 11.10 СЗ 3 15 км {гроза, ливн. осадки} 9/8 240 м
[Cu Sc Ac As Cs]
+25.0 +24.3 96 +35 +36 очень
душно
1012.6 1013.0
18 11.10 СЗ 3 25 км {гроза, ливн. осадки} 9/4 630 м
[Cu Sc Ac lent Ci ing]
+28.3 +23.8 77 +39 +44 очень
душно
1011.1 1011.0 2
21 11.10 С 2 25 км осадки на расстоянии 9/3 700 м
[Cu Sc Ac und Ci ing]
+29.7 +26.1 81 +45 +48 опасность
перегрева
1008.7 1009.0
00 12.10 С 1 20 км в посл. час гроза 9/6 450 м
[Cu Sc Ci ing]
+24.9 +22.7 88 +33 +33 очень
душно
1010.4 1010.0 +23.3 +31.0
03 12.10 СЗ 2 20 км зарница 9/6 450 м
[Cu Sc Ci ing]
+24.6 +23.6 94 +33 +33 очень
душно
1011.8 1012.0
06 12.10 СЗ 2 18 км гроза без осадков 8/5 240 м
[Cb cap Ci ing]
+24.1 +23.8 98 +33 +33 очень
душно
1011.4 1011.0
09 12.10 СЗ 3 10 км {гроза} 9/8 60 м
[Cu Sc Ci sp]
+24.1 +24.0 99 +33 +33 очень
душно
1009.9 1010.0
12 12.10 З 3 10 км гроза без осадков {ливн. осадки} 9/8 90 м
[Cb cap Ac As Cs]
+24.6 +24.5 99 +34 +34 очень
душно
1011.2 1011.0 +23.2 +31.0 1
15 12.10 СЗ 3 20 км гроза без осадков 9/9 180 м
[Cb cap Ci ing]
+26.6 +25.1 91 +38 +39 очень
душно
1012.2 1012.0
18 12.10 СВ 3 12 км гроза, ливневой дождь 9/8 240 м
[Cb cap Ci ing]
+26.5 +24.9 91 +38 +40 очень
душно
1011.5 1012.0 1
21 12.10 С 4 10 км слабый ливневой дождь {гроза} 9/6 240 м
[Cu Sc Ac As Ci ing]
+25.7 +25.4 98 +37 +39 очень
душно
1008.9 1009.0
00 13.10 СЗ 2 300 м {гроза, дождь} 9/4 210 м
[Cu Sc Ac As Ci sp]
+25.5 +24.8 96 +36 +36 очень
душно
1010.7 1011.0 +23.2 +25.8 3
06 13.10 З 1 500 м гроза без осадков {туман} ?/? +24.1 +24.1 100 +33 +33 очень
душно
1012.2 1012.0
09 13.10 З 2 700 м гроза без осадков {туман} ?/? +23.6 +23.6 100 +32 +32 очень
душно
1011.7 1012.0
12 13.10 СЗ 3 4000 м дымка {гроза, туман} 9/9 30 м
[Frnb Ci sp]
+23.2 +23.2 100 +33 +33 очень
душно
1012.1 1012.0 +22.9 +25.8
15 13.10 З 2 20 км 9/9 300 м
[Cu hum Ci sp]
+25.5 +24.7 95 +36 +37 очень
душно
1013.9 1014.0
18 13.10 СЗ 3 20 км слабый ливневой дождь 9/6 500 м
[Cu Sc Ac As Ci sp]
+27.5 +24.9 86 +39 +43 очень
душно
1012.7 1013.0 0.9
21 13.10 СВ 4 25 км {ливн. осадки} 9/3 660 м
[Cu Sc Ac trans Ci sp]
+29.6 +24.3 73 +41 +44 опасность
перегрева
1011.0 1011.0
00 14.10 штиль 0 25 км {ливн. осадки} 8/3 630 м
[Cu Sc Ac trans Ci fib]
+27.3 +24.8 86 +39 +39 очень
душно
1011.1 1011.0 +22.9 +30.2 0.9
03 14.10 штиль 0 25 км в посл. час ливневой дождь 8/3 570 м
[Cu Sc Cs]
+25.5 +23.8 90 +35 +35 очень
душно
1013.6 1014.0
06 14.10 штиль 0 25 км {ливн. осадки} 8/3 500 м
[Cu med, cong Ci sp]
+25.1 +24.0 94 +35 +35 очень
душно
1012.7 1013.0 0.9
09 14.10 штиль 0 25 км 8/1 500 м
[Cu med, cong Ci fib]
+24.3 +24.0 98 +33 +33 очень
душно
1011.8 1012.0
12 14.10 штиль 0 20 км 9/3 500 м
[Cu med, cong Ci sp]
+23.5 +23.4 99 +32 +32 очень
душно
1012.9 1013.0 +23.2 +30.2
15 14.10 З 2 20 км 9/4 540 м
[Cu Sc Ac As Cs]
+25.7 +24.6 94 +36 +39 очень
душно
1014.7 1015.0
18 14.10 В 2 18 км слабый дождь 9/4 570 м
[Cu Sc Ac As Cs]
+28.2 +25.6 86 +42 +48 опасность
перегрева
1013.9 1014.0
21 14.10 С 2 24 км {дождь} 9/5 600 м
[Cu Sc Ac trans Ci sp]
+28.8 +24.1 76 +40 +42 очень
душно
1011.8 1012.0
00 15.10 СВ 2 25 км {дождь} 9/3 540 м
[Cu Sc Ac trans Ci sp]
+27.5 +24.8 85 +39 +39 очень
душно
1012.6 1013.0 +23.2 +29.1 0.3
03 15.10 СЗ 2 25 км 5/1 1200 м
[Sc Ci sp]
+25.5 +24.5 94 +36 +36 очень
душно
1014.4 1014.0
06 15.10 штиль 0 25 км зарница 1/1 450 м
[Cu hum Ci fib]
+24.4 +24.1 98 +34 +34 очень
душно
1013.7 1014.0
09 15.10 СЗ 1 12 км зарница 3/3 120 м
[St Ci fib]
+24.4 +24.0 98 +34 +34 очень
душно
1012.4 1012.0
12 15.10 З 1 12 км в посл. час ливневой дождь {туман} 6/6 150 м
[Cu Sc Ci sp]
+24.5 +24.4 99 +34 +34 очень
душно
1013.6 1014.0 +24.1 +29.1 1
15 15.10 З 1 8000 м слабый ливневой дождь 9/9 90 м
[Cu Sc Ci ing]
+25.5 +25.1 98 +37 +38 очень
душно
1015.3 1015.0
18 15.10 З 1 10 км гроза без осадков {ливн. осадки} 9/6 180 м
[Cb cap Ac As Cs]
+25.5 +25.1 98 +37 +42 очень
душно
1014.3 1014.0 27
21 15.10 С 3 20 км {гроза} 9/9 360 м
[Cu Sc Ci sp]
+28.2 +25.9 87 +42 +43 опасность
перегрева
1012.7 1013.0
00 16.10 штиль 0 12 км слабый ливневой дождь {гроза} 9/6 360 м
[Cu Sc Ci ing]
+25.0 +24.5 97 +35 +35 очень
душно
1013.4 1013.0 +24.1 +28.7 7
03 16.10 штиль 0 20 км зарница {ливн. осадки} 6/3 450 м
[Cu Sc Ci ing]
+25.0 +24.6 98 +35 +35 очень
душно
1014.6 1015.0
06 16.10 З 2 20 км зарница {ливн. осадки} 8/4 240 м
[Cu Sc Ci ing]
+24.4 +24.1 98 +34 +34 очень
душно
1014.4 1014.0 1
09 16.10 СЗ 2 12 км зарница 9/8 120 м
[Cu Sc Ci ing]
+24.3 +24.2 99 +33 +33 очень
душно
1013.0 1013.0
12 16.10 СЗ 3 3000 м дымка 9/9 30 м
[Cu Sc Ci ing]
+24.5 +24.5 100 +34 +34 очень
душно
1014.1 1014.0 +24.3 +28.7
15 16.10 СЗ 3 20 км 9/8 360 м
[Cu Sc Ac trans Ci sp]
+27.6 +26.4 93 +42 +43 опасность
перегрева
1015.7 1016.0
18 16.10 СВ 2 22 км 9/6 500 м
[Cu Sc Ac trans Ci ing]
+29.3 +25.1 78 +42 +47 опасность
перегрева
1013.7 1014.0
21 16.10 В 4 25 км 9/3 660 м
[Cu Sc Ci ing]
+30.4 +25.3 74 +44 +47 опасность
перегрева
1010.8 1011.0
00 17.10 штиль 0 25 км 9/3 600 м
[Cu med, cong Ac trans Ci sp]
+28.0 +26.3 91 +43 +43 опасность
перегрева
1011.8 1012.0 +24.3 +30.7
03 17.10 штиль 0 25 км 9/1 540 м
[Cu med, cong Ci sp]
+26.5 +25.3 93 +38 +38 очень
душно
1014.1 1014.0
06 17.10 З 1 25 км 6/6 450 м
[Cu med, cong Ci fib]
+25.9 +25.4 97 +38 +38 очень
душно
1013.3 1013.0
09 17.10 СЗ 4 12 км гроза, ливневой дождь 9/6 300 м
[Cb cap Ci ing]
+25.3 +25.2 99 +36 +36 очень
душно
1012.0 1012.0
12 17.10 З 1 12 км слабый ливневой дождь, в посл. час гроза 9/9 90 м
[Cu med, cong Ci sp]
+25.4 +24.7 96 +36 +36 очень
душно
1013.1 1013.0 +25.1 +30.7 7
15 17.10 СЗ 3 15 км 9/9 420 м
[Cu med, cong Ci sp]
+27.0 +25.7 93 +40 +41 очень
душно
1015.0 1015.0
18 17.10 СВ 3 20 км осадки на расстоянии 9/5 600 м
[Cu Sc Ac trans Ci ing]
+31.4 +25.2 70 +45 +50 опасность
перегрева
1013.0 1013.0
21 17.10 СВ 3 25 км 9/4 600 м
[Cu Sc Ac As Ci sp]
+30.3 +25.5 76 +45 +47 опасность
перегрева
1011.2 1011.0
00 18.10 СВ 2 25 км 9/3 600 м
[Cu Sc Ac trans Ci sp]
+28.7 +25.6 83 +42 +42 опасность
перегрева
1012.1 1012.0 +24.6 +31.4
03 18.10 штиль 0 25 км зарница 4/1 540 м
[Cu Sc Ci sp]
+27.1 +25.9 93 +40 +40 очень
душно
1014.0 1014.0
06 18.10 штиль 0 25 км 9/1 480 м
[Cu med, cong Ci sp]
+26.4 +25.7 96 +39 +39 очень
душно
1013.6 1014.0
09 18.10 З 2 25 км зарница 8/6 300 м
[Cu Sc As trans Cs]
+25.0 +24.9 99 +35 +35 очень
душно
1011.8 1012.0

 

Местоположение метеостанции Belize (Белиз): широта 17.53 долгота -88.30 высота над уровнем моря 5 м.

В архиве по умолчанию представлена погода в Belize за последнюю неделю. Архивные данные за месяц целиком и за предыдущие месяцы, начиная с января 2011 года, Вы можете получить, выбрав интересующий диапазон дат из раскрывающегося списка и нажав кнопку "Ввод!".

Внимание! Время в таблицах - всемирное. Для получения местного времени необходимо прибавить поправку, которая в Belize равна -4 ч.

Смотрите также архив погоды в соседних городах и на ближайших метеорологических станциях:

Погода в Chetumal (Мексика) (106 км)
Погода в Flores (Гватемала) (181 км)
Погода в Puerto Barrios (Гватемала) (204 км)
Погода в Tela (Гондурас) (219 км)
Погода в Roatan (Гондурас) (233 км)
Погода в La Mesa (Гондурас) (235 км)
Погода в Felipe Carrillo Pue (Мексика) (245 км)
Погода в La Ceiba (Гондурас) (252 км)
Погода в Yoro (Гондурас) (292 км)
Погода в Trujillo (Гондурас) (309 км)

Пояснения к столбцам:

Ветер - указаны скорость ветра в м/с - средняя за 10 мин, порывы в срок и между сроками (в фигурных скобках) и направление, откуда дует ветер: С - северный, СВ - северо-восточный, В - восточный, ЮВ - юго-восточный, Ю - южный, ЮЗ - юго-западный, З - западный, СЗ - северо-западный.
Видимость - горизонтальная дальность видимости в метрах или километрах. При видимости от 1 до 10 км при отсутствии осадков обычно наблюдается дымка, при ухудшении видимости до 1 км и менее - туман. В сухую погоду видимость может ухудшаться дымом, пылью или мглою.
Явления - указаны атмосферные явления, наблюдавшиеся в срок или в последний час перед сроком; фигурными скобками обозначены явления, наблюдавшиеся между сроками (за 1-3 часа до срока); квадратными скобками обозначены град или гололедные отложения с указанием их диаметра в мм.
Облачность - указаны через наклонную черту общая и нижняя облачность в баллах и высота нижней границы облаков в метрах; квадратными скобками обозначены формы облаков: Ci - перистые, Cs - перисто-слоистые, Cc - перисто-кучевые, Ac - высококучевые, As - высокослоистые, Sc - слоисто-кучевые, Ns - слоисто-дождевые, Cu - кучевые, Cb - кучево-дождевые. Подробнее классификацию облаков см. в Атласе облаков (PDF).
T - Температура воздуха - температура, измеренная на высоте 2 м над землей.
Td - Температура точки росы - температура, при понижении до которой содержащийся в воздухе водяной пар достигнет насыщения.
f - Относительная влажность воздуха - влажноcть воздуха, измеренная на высоте 2 м над землей.
Te - Эффективная температура - температура, которую ощущает одетый по сезону человек в тени. Характеристика душности погоды. При расчете учитывается влияние влажности воздуха и скорости ветра на теплоощущения человека.
Tes - Эффективная температура на солнце - температура, которую ощущает человек, с поправкой на солнечный нагрев. Характеристика знойности погоды. Зависит от высоты солнца над горизонтом, облачности и скорости ветра. Ночью, в пасмурную погоду, а также при ветре 12 м/с и более поправка равна нулю.
P - Атмосферное давление - приведенное к уровню моря атмосферное давление.
Po - Атмосферное давление - измеренное на уровне метеостанции атмосферное давление.
Tmin - Минимальная температура - минимум температуры воздуха на высоте 2 м над землей.
Tmax - Максимальная температура - максимум температуры воздуха на высоте 2 м над землей.
R - Количество осадков - Количество выпавших осадков за период времени, мм. При наведении курсора мыши на число - период времени, за который выпало указанное количество осадков.
R24 - Количество осадков - Количество выпавших осадков за 24 часа, мм.
S - Снежный покров - Высота снежного покрова, см. При наведении курсора мыши на число - состояние снежного покрова и степень покрытия местности в баллах.